STARLINK-34330, 64227

Orbit data source: Space-Track

STARLINK-34330, 64227 is a payload satellite owned by SpaceX/Seattle (US) in LEO that was launched on Sat, 31 May 2025 UTC via an FALCON 9 launch vehicle from the Air Force Western Test Range (AFWTR). Payload-class satellites include a variety of spacecraft equipped with specific instruments for various scientific and technological missions. These include communications satellites like Starlink; space stations such as the ISS; scientific satellites like the Hubble; Earth observation satellites from companies like Planet Labs, Umbra, and HawkEye 360; GPS; miniature CubeSats for education and research; and military/defense satellites.

Loading next visibility...
Identifier
64227, 2025-117AA
Orbit
LEO
Country
Flag of USUS
Related business
Manufacturer
SpaceX/Seattle
Mission
Operational Commercial Communications
Bus & Motor
STARLINK V2MO, Unknown motor
Mass
575 kg wet, ~530 kg dry
Launch date (UTC)
2025-05-31 (1 year ago)
Launch vehicle
FALCON 9
Launch site
Air Force Western Test Range (AFWTR)
Object type
Payload
Rocket body
Debris
Shape & HBR
Box + 2 Pan, 17.7 m
Radar Cross Section
36.964 m², Large (>1 m²)

Expand to show TLE details & history
Last TLE update: 1 day ago

TLE from 1 day ago
0 STARLINK-34330
1 64227U 25117AA  26170.69338181  .00024957  00000-0  85139-3 0  9998
2 64227  53.1593 285.7514 0001207  62.8106 297.3018 15.30220422 60146
Epoch: 2026-06-19T16:38Z
TLE epoch observation values (Epoch: 2026-06-19T16:38:28.188Z)
Latitude
0.00001°
Longitude
128.21526°
Altitude
475.674 km
Speed
7.629 km/s
True Right ascension
19h 03m 00s
True Declination
0° 00' 00"
Sunlit
Object was in full shadow at epoch
Visualization orbit readout
Latitude
Unknown
Longitude
Unknown
Altitude
Unknown
Speed
Unknown
Apparent Right ascension
Unknown
Apparent Declination
Unknown
Sunlit
N/A
Visualization observer readout
Local Sidereal Time
07:21:30
Azimuth
Unknown
Elevation
Unknown
Doppler factor
Unknown
Orbital elements
Apogee altitude
476.238 km
Perigee altitude
474.583 km
Semi-major axis
6,853.548 km
Eccentricity
0.00012
Inclination
53.1593°
RAAN
285.7514°
Arg. of periapsis
62.8106°
True anomaly
297.28951°
Mean anomaly
297.3018°
Eccentric anomaly
297.29565°
Mean motion
3.82534 °/min
Orbital period
94.11 mins
BSTAR
0.00085139
Loading maneuver chart data...
Computing Atmospheric mass density...
Loading historical data...
Loading historical data...
Loading historical data...
Loading historical data...
Loading historical data...
Loading historical data...
Loading historical data...

Documentation

Showing up to 5 results
|